Location: Ohmer (historical)
(38.0096°N, 122.0227°W)
Time: 03:08:07
(UTC+00:00)

Cosmos 2297 Rocket - Pass Details

Date: 14 February 2026
Orbit: 838 x 843 km, 71.0° (Epoch: 7 March)

Event Time Altitude Azimuth Distance (km) Brightness Sun altitude
Exits shadow 13:10:55 15° 204° (SSW) 2,136 4.1 -21.9°
Drops below altitude 10° 13:11:55 10° 198° (SSW) 2,447 4.4 -21.7°
Sets 13:14:37 0° 188° (S) 3,376 5.3 -21.2°
